When you browse on this site, cookies collect data to enhance your experience and personalize the content and advertising you see.
Visit our Privacy Policy to learn more. By continuing to use the site, you agree to this use of cookies and data.
  • In Hungary
  • List of Countries
  • For 7 days
  • Water Temperature
  • Weather Map
  • News
  • Weather Widgets
  • user-avatar
    Login

    Hourly Weather Kavalerovo

    Today, 31 March, Tuesday

    Time Temperature Precipitation Wind Pressure Humidity
    00:00 +3°C° 0 mm 1 mps 738 mmHg 76%
    01:00 +3°C° 0 mm 1 mps 738 mmHg 74%
    02:00 +3°C° 0 mm 1 mps 738 mmHg 71%
    03:00 +3°C° 0 mm 1 mps 737 mmHg 68%
    04:00 +3°C° 0 mm 1 mps 737 mmHg 66%
    05:00 +3°C° 0 mm 1 mps 738 mmHg 65%
    06:00 +3°C° 0 mm 1 mps 738 mmHg 63%
    07:00 +4°C° 0 mm 0 mps 737 mmHg 56%
    08:00 +7°C° 0 mm 0 mps 737 mmHg 50%
    09:00 +10°C° 0 mm 0 mps 737 mmHg 44%
    10:00 +12°C° 0 mm 1 mps 737 mmHg 40%
    11:00 +14°C° 0 mm 1 mps 737 mmHg 37%
    12:00 +15°C° 0 mm 2 mps 736 mmHg 33%
    13:00 +15°C° 0 mm 2 mps 736 mmHg 34%
    14:00 +14°C° 0 mm 3 mps 735 mmHg 34%
    15:00 +14°C° 0 mm 3 mps 735 mmHg 35%
    16:00 +12°C° 0 mm 3 mps 735 mmHg 44%
    17:00 +10°C° 0 mm 2 mps 734 mmHg 53%
    18:00 +9°C° 0 mm 1 mps 734 mmHg 61%
    19:00 +8°C° 0 mm 1 mps 734 mmHg 66%
    20:00 +7°C° 0 mm 1 mps 734 mmHg 71%
    21:00 +6°C° 0 mm 1 mps 734 mmHg 75%
    22:00 +6°C° 0 mm 1 mps 734 mmHg 77%
    23:00 +5°C° 0 mm 1 mps 734 mmHg 79%

    Tomorrow, 1 April, Wednesday

    Time Temperature Precipitation Wind Pressure Humidity
    00:00 +5°C° 0 mm 1 mps 734 mmHg 81%
    01:00 +5°C° 0.1 mm 1 mps 734 mmHg 84%
    02:00 +5°C° 0.1 mm 1 mps 734 mmHg 86%
    03:00 +5°C° 0.1 mm 1 mps 733 mmHg 89%
    04:00 +4°C° 0.1 mm 2 mps 734 mmHg 89%
    05:00 +4°C° 0.1 mm 2 mps 734 mmHg 90%
    06:00 +2°C° 0.1 mm 3 mps 735 mmHg 90%
    07:00 +3°C° 0 mm 3 mps 735 mmHg 82%
    08:00 +4°C° 0 mm 3 mps 735 mmHg 74%
    09:00 +5°C° 0 mm 4 mps 735 mmHg 65%
    10:00 +5°C° 0 mm 4 mps 735 mmHg 59%
    11:00 +6°C° 0 mm 4 mps 736 mmHg 52%
    12:00 +7°C° 0 mm 4 mps 736 mmHg 46%
    13:00 +7°C° 0 mm 4 mps 736 mmHg 43%
    14:00 +7°C° 0 mm 4 mps 735 mmHg 40%
    15:00 +8°C° 0 mm 3 mps 735 mmHg 38%
    16:00 +7°C° 0 mm 3 mps 735 mmHg 41%
    17:00 +6°C° 0 mm 2 mps 735 mmHg 44%
    18:00 +5°C° 0 mm 2 mps 735 mmHg 47%
    19:00 +4°C° 0 mm 2 mps 736 mmHg 51%
    20:00 +2°C° 0 mm 2 mps 736 mmHg 55%
    21:00 +1°C° 0 mm 2 mps 737 mmHg 59%
    22:00 +2°C° 0 mm 1 mps 736 mmHg 59%
    23:00 +1°C° 0 mm 1 mps 736 mmHg 60%

    Day after tomorrow, 2 April, Thursday

    Time Temperature Precipitation Wind Pressure Humidity
    00:00 +1°C° 0 mm 1 mps 736 mmHg 60%
    01:00 +1°C° 0 mm 1 mps 736 mmHg 60%
    02:00 +1°C° 0 mm 1 mps 735 mmHg 60%
    03:00 0°C° 0 mm 1 mps 735 mmHg 60%
    04:00 0°C° 0 mm 1 mps 735 mmHg 60%
    05:00 0°C° 0 mm 1 mps 734 mmHg 61%
    06:00 0°C° 0 mm 1 mps 734 mmHg 61%
    07:00 +3°C° 0 mm 1 mps 734 mmHg 52%
    08:00 +5°C° 0 mm 2 mps 734 mmHg 42%
    09:00 +8°C° 0 mm 2 mps 733 mmHg 33%
    10:00 +9°C° 0 mm 3 mps 733 mmHg 31%
    11:00 +11°C° 0 mm 3 mps 732 mmHg 29%
    12:00 +12°C° 0 mm 4 mps 731 mmHg 26%
    13:00 +12°C° 0 mm 5 mps 731 mmHg 28%
    14:00 +12°C° 0 mm 5 mps 730 mmHg 29%
    15:00 +11°C° 0 mm 6 mps 729 mmHg 31%
    16:00 +10°C° 0 mm 5 mps 729 mmHg 37%
    17:00 +8°C° 0 mm 4 mps 729 mmHg 43%
    18:00 +8°C° 0 mm 3 mps 729 mmHg 49%
    19:00 +5°C° 0 mm 3 mps 730 mmHg 60%
    20:00 +4°C° 0 mm 4 mps 731 mmHg 70%
    21:00 +1°C° 0 mm 4 mps 731 mmHg 81%
    22:00 0°C° 0 mm 4 mps 731 mmHg 70%
    23:00 -1°C° 0 mm 4 mps 732 mmHg 60%

    3 April, Friday

    Time Temperature Precipitation Wind Pressure Humidity
    00:00 -2°C° 0 mm 4 mps 732 mmHg 49%
    01:00 -3°C° 0 mm 4 mps 732 mmHg 47%
    02:00 -4°C° 0 mm 5 mps 732 mmHg 44%
    03:00 -5°C° 0 mm 5 mps 732 mmHg 42%
    04:00 -5°C° 0 mm 6 mps 732 mmHg 41%
    05:00 -5°C° 0 mm 6 mps 732 mmHg 40%
    06:00 -5°C° 0 mm 6 mps 732 mmHg 39%
    07:00 -4°C° 0 mm 6 mps 732 mmHg 35%
    08:00 -3°C° 0 mm 7 mps 732 mmHg 31%
    09:00 -1°C° 0 mm 7 mps 732 mmHg 27%
    10:00 0°C° 0 mm 7 mps 732 mmHg 24%
    11:00 +2°C° 0 mm 7 mps 731 mmHg 22%
    12:00 +2°C° 0 mm 8 mps 731 mmHg 19%
    13:00 +4°C° 0 mm 7 mps 731 mmHg 21%
    14:00 +4°C° 0 mm 7 mps 731 mmHg 23%
    15:00 +4°C° 0 mm 7 mps 731 mmHg 25%
    16:00 +3°C° 0 mm 6 mps 731 mmHg 31%
    17:00 +2°C° 0 mm 5 mps 731 mmHg 36%
    18:00 +2°C° 0 mm 3 mps 731 mmHg 42%
    19:00 +1°C° 0 mm 3 mps 731 mmHg 48%
    20:00 0°C° 0 mm 3 mps 732 mmHg 54%
    21:00 -1°C° 0 mm 2 mps 732 mmHg 59%
    22:00 -1°C° 0 mm 2 mps 732 mmHg 62%
    23:00 0°C° 0 mm 1 mps 732 mmHg 64%

    4 April, Saturday

    Time Temperature Precipitation Wind Pressure Humidity
    00:00 -2°C° 0 mm 0 mps 731 mmHg 66%
    01:00 -1°C° 0 mm 1 mps 731 mmHg 65%
    02:00 -1°C° 0 mm 1 mps 731 mmHg 64%
    03:00 -2°C° 0 mm 1 mps 732 mmHg 63%
    04:00 -2°C° 0 mm 1 mps 732 mmHg 61%
    05:00 -2°C° 0 mm 1 mps 732 mmHg 58%
    06:00 -2°C° 0 mm 1 mps 733 mmHg 56%
    07:00 -3°C° 0 mm 2 mps 733 mmHg 53%
    08:00 -1°C° 0 mm 3 mps 734 mmHg 50%
    09:00 -1°C° 0 mm 4 mps 734 mmHg 47%
    10:00 0°C° 0 mm 4 mps 734 mmHg 45%
    11:00 +1°C° 0 mm 4 mps 734 mmHg 43%
    12:00 +3°C° 0 mm 4 mps 734 mmHg 41%
    13:00 +3°C° 0.3 mm 4 mps 735 mmHg 45%
    14:00 +1°C° 0.3 mm 4 mps 735 mmHg 50%
    15:00 +2°C° 0.3 mm 3 mps 735 mmHg 54%
    16:00 +1°C° 0.5 mm 3 mps 736 mmHg 60%
    17:00 +1°C° 0.5 mm 2 mps 737 mmHg 67%
    18:00 +1°C° 0.5 mm 1 mps 737 mmHg 73%
    19:00 +1°C° 0.1 mm 1 mps 738 mmHg 78%
    20:00 0°C° 0.1 mm 1 mps 739 mmHg 82%
    21:00 -1°C° 0.1 mm 1 mps 740 mmHg 87%
    22:00 -1°C° 0 mm 1 mps 740 mmHg 87%
    23:00 -2°C° 0 mm 1 mps 740 mmHg 88%

    5 April, Sunday

    Time Temperature Precipitation Wind Pressure Humidity
    00:00 -2°C° 0 mm 1 mps 740 mmHg 88%
    01:00 -2°C° 0 mm 1 mps 740 mmHg 88%
    02:00 -2°C° 0 mm 1 mps 740 mmHg 87%
    03:00 -3°C° 0 mm 1 mps 740 mmHg 87%
    04:00 -5°C° 0 mm 2 mps 741 mmHg 87%
    05:00 -5°C° 0 mm 2 mps 741 mmHg 86%
    06:00 -5°C° 0 mm 2 mps 741 mmHg 86%
    07:00 -4°C° 0 mm 3 mps 742 mmHg 73%
    08:00 0°C° 0 mm 3 mps 742 mmHg 60%
    09:00 +1°C° 0 mm 4 mps 742 mmHg 47%
    10:00 +2°C° 0 mm 5 mps 741 mmHg 42%
    11:00 +4°C° 0 mm 6 mps 741 mmHg 37%
    12:00 +5°C° 0 mm 6 mps 741 mmHg 32%
    13:00 +5°C° 0 mm 6 mps 740 mmHg 33%
    14:00 +5°C° 0 mm 6 mps 740 mmHg 33%
    15:00 +5°C° 0 mm 6 mps 740 mmHg 33%
    16:00 +5°C° 0 mm 5 mps 740 mmHg 38%
    17:00 +4°C° 0 mm 4 mps 740 mmHg 43%
    18:00 +3°C° 0 mm 4 mps 740 mmHg 48%
    19:00 +2°C° 0 mm 3 mps 740 mmHg 52%
    20:00 0°C° 0 mm 3 mps 740 mmHg 56%
    21:00 -1°C° 0 mm 3 mps 741 mmHg 60%
    22:00 -1°C° 0 mm 3 mps 741 mmHg 60%
    23:00 -2°C° 0 mm 2 mps 741 mmHg 60%
    Show more